This is the latest recevied weather packets stored in our database for station/object CA3PBK-13. If no packets are shown the sender has not sent any weather packets the latest 10 day(s).
| Time | Temp. | Humidity | Pressure | Rain* | Wind** | Luminosity | Snow |
|---|---|---|---|---|---|---|---|
| 1778166788 | 14.44° C | 1% | 935.7 hPa | 0 mm | - | - | - |
| 1778166667 | 13.89° C | 1% | 935.8 hPa | 0 mm | - | - | - |
| 1778166548 | 13.89° C | 1% | 935.9 hPa | 0 mm | - | - | - |
| 1778166428 | 13.89° C | 1% | 935.8 hPa | 0 mm | - | - | - |
| 1778166309 | 13.89° C | 1% | 935.8 hPa | 0 mm | - | - | - |
| 1778166188 | 13.33° C | 1% | 935.8 hPa | 0 mm | - | - | - |
| 1778166067 | 13.33° C | 1% | 935.8 hPa | 0 mm | - | - | - |
| 1778165947 | 12.78° C | 1% | 935.9 hPa | 0 mm | - | - | - |
| 1778165828 | 12.78° C | 1% | 936.1 hPa | 0 mm | - | - | - |
| 1778165709 | 12.78° C | 1% | 936.2 hPa | 0 mm | - | - | - |
| 1778165587 | 12.78° C | 1% | 936.2 hPa | 0 mm | - | - | - |
| 1778165468 | 12.22° C | 1% | 936.3 hPa | 0 mm | - | - | - |
| 1778165348 | 12.22° C | 1% | 936.3 hPa | 0 mm | - | - | - |
| 1778165228 | 12.22° C | 1% | 936.3 hPa | 0 mm | - | - | - |
| 1778164987 | 12.22° C | 1% | 936.3 hPa | 0 mm | - | - | - |
| 1778164868 | 12.78° C | 1% | 936.4 hPa | 0 mm | - | - | - |
| 1778164748 | 12.22° C | 1% | 936.5 hPa | 0 mm | - | - | - |
| 1778164628 | 11.67° C | 1% | 936.5 hPa | 0 mm | - | - | - |
| 1778164509 | 12.22° C | 1% | 936.6 hPa | 0 mm | - | - | - |
| 1778164387 | 11.67° C | 1% | 936.7 hPa | 0 mm | - | - | - |
| 1778164267 | 11.67° C | 1% | 936.7 hPa | 0 mm | - | - | - |
| 1778164148 | 11.67° C | 1% | 936.5 hPa | 0 mm | - | - | - |
| 1778164028 | 11.67° C | 1% | 936.7 hPa | 0 mm | - | - | - |
| 1778163909 | 11.11° C | 1% | 936.7 hPa | 0 mm | - | - | - |
| 1778163788 | 11.67° C | 1% | 936.6 hPa | 0 mm | - | - | - |
* Rain latest hour (hover to see other rain measurements)
** Current wind speed in m/s (hover to see current wind gust speed)